contact:dominique.lefevre@mio.osupytheas.fr, maurice.libes@osupytheas.fr, didier.mallarino@osupytheas.fr
Project:EMSO http://www.emso-fr.org/EMSO-France
Depth: 2436.0 m
Title:EMSO Ligure Ouest : Data MII capteur MICROCAT
DateTime_Computer,Latitude,Longitude,Temperature,Conductivity,Pressure,DateTime_Instrument
DateTime_Computer,Latitude,Longitude,degC,S m-1,dbar,DateTime_Instrument
2023-08-17T00:00:26Z,42.805,6.029,13.3038,4.60097,2470.73,2023-8-17T02:02:46Z
2023-08-17T00:03:29Z,42.805,6.029,13.3032,4.60099,2470.707,2023-8-17T02:05:49Z
2023-08-17T00:06:33Z,42.805,6.029,13.3032,4.60096,2470.693,2023-8-17T02:08:52Z
2023-08-17T00:09:36Z,42.805,6.029,13.3032,4.60092,2470.693,2023-8-17T02:11:55Z
2023-08-17T00:12:39Z,42.805,6.029,13.3034,4.60093,2470.693,2023-8-17T02:14:58Z
2023-08-17T00:15:42Z,42.805,6.029,13.3031,4.60094,2470.67,2023-8-17T02:18:01Z
2023-08-17T00:18:45Z,42.805,6.029,13.3029,4.60095,2470.684,2023-8-17T02:21:04Z
2023-08-17T00:21:48Z,42.805,6.029,13.3034,4.60092,2470.73,2023-8-17T02:24:07Z
2023-08-17T00:24:51Z,42.805,6.029,13.3032,4.60092,2470.707,2023-8-17T02:27:10Z
2023-08-17T00:27:54Z,42.805,6.029,13.3029,4.60092,2470.67,2023-8-17T02:30:14Z
2023-08-17T00:30:57Z,42.805,6.029,13.3039,4.60094,2470.693,2023-8-17T02:33:17Z
2023-08-17T00:34:00Z,42.805,6.029,13.3031,4.60092,2470.684,2023-8-17T02:36:20Z
2023-08-17T00:37:03Z,42.805,6.029,13.3032,4.60092,2470.693,2023-8-17T02:39:23Z
2023-08-17T00:40:06Z,42.805,6.029,13.3035,4.60092,2470.693,2023-8-17T02:42:26Z
2023-08-17T00:43:10Z,42.805,6.029,13.3036,4.60092,2470.661,2023-8-17T02:45:29Z
2023-08-17T00:46:13Z,42.805,6.029,13.3029,4.60092,2470.684,2023-8-17T02:48:32Z
2023-08-17T00:49:16Z,42.805,6.029,13.3035,4.60096,2470.693,2023-8-17T02:51:35Z
2023-08-17T00:52:19Z,42.805,6.029,13.3043,4.60107,2470.693,2023-8-17T02:54:38Z
2023-08-17T00:55:22Z,42.805,6.029,13.3029,4.60091,2470.67,2023-8-17T02:57:41Z
2023-08-17T00:58:25Z,42.805,6.029,13.3031,4.60097,2470.67,2023-8-17T03:00:44Z
2023-08-17T01:01:28Z,42.805,6.029,13.3036,4.60097,2470.707,2023-8-17T03:03:47Z
2023-08-17T01:04:31Z,42.805,6.029,13.3034,4.60104,2470.67,2023-8-17T03:06:51Z
2023-08-17T01:07:34Z,42.805,6.029,13.3036,4.60102,2470.646,2023-8-17T03:09:54Z
2023-08-17T01:10:37Z,42.805,6.029,13.3038,4.60104,2470.684,2023-8-17T03:12:57Z
2023-08-17T01:13:40Z,42.805,6.029,13.3026,4.60090,2470.67,2023-8-17T03:16:00Z
2023-08-17T01:16:43Z,42.805,6.029,13.3035,4.60101,2470.693,2023-8-17T03:19:03Z
2023-08-17T01:19:47Z,42.805,6.029,13.3033,4.60092,2470.67,2023-8-17T03:22:06Z
2023-08-17T01:22:50Z,42.805,6.029,13.3046,4.60093,2470.646,2023-8-17T03:25:09Z
2023-08-17T01:25:53Z,42.805,6.029,13.3044,4.60111,2470.67,2023-8-17T03:28:12Z
2023-08-17T01:28:56Z,42.805,6.029,13.3049,4.60117,2470.707,2023-8-17T03:31:15Z
2023-08-17T01:31:59Z,42.805,6.029,13.3050,4.60142,2470.646,2023-8-17T03:34:18Z
2023-08-17T01:35:02Z,42.805,6.029,13.3043,4.60099,2470.646,2023-8-17T03:37:21Z
2023-08-17T01:38:05Z,42.805,6.029,13.3034,4.60096,2470.67,2023-8-17T03:40:24Z
2023-08-17T01:41:08Z,42.805,6.029,13.3045,4.60103,2470.684,2023-8-17T03:43:28Z
2023-08-17T01:44:11Z,42.805,6.029,13.3039,4.60099,2470.661,2023-8-17T03:46:31Z
2023-08-17T01:47:14Z,42.805,6.029,13.3041,4.60109,2470.693,2023-8-17T03:49:34Z
2023-08-17T01:50:17Z,42.805,6.029,13.3054,4.60114,2470.67,2023-8-17T03:52:37Z
2023-08-17T01:53:20Z,42.805,6.029,13.3051,4.60139,2470.646,2023-8-17T03:55:40Z
2023-08-17T01:56:24Z,42.805,6.029,13.3046,4.60131,2470.646,2023-8-17T03:58:43Z
2023-08-17T01:59:27Z,42.805,6.029,13.3052,4.60120,2470.637,2023-8-17T04:01:46Z
2023-08-17T02:02:30Z,42.805,6.029,13.3044,4.60114,2470.624,2023-8-17T04:04:49Z
2023-08-17T02:05:33Z,42.805,6.029,13.3051,4.60151,2470.646,2023-8-17T04:07:52Z
2023-08-17T02:08:36Z,42.805,6.029,13.3048,4.60126,2470.661,2023-8-17T04:10:55Z
2023-08-17T02:11:39Z,42.805,6.029,13.3056,4.60107,2470.646,2023-8-17T04:13:58Z
2023-08-17T02:14:42Z,42.805,6.029,13.3056,4.60125,2470.646,2023-8-17T04:17:01Z
2023-08-17T02:17:45Z,42.805,6.029,13.3041,4.60105,2470.646,2023-8-17T04:20:05Z
2023-08-17T02:20:48Z,42.805,6.029,13.3039,4.60119,2470.624,2023-8-17T04:23:08Z
2023-08-17T02:23:51Z,42.805,6.029,13.3060,4.60110,2470.684,2023-8-17T04:26:11Z
2023-08-17T02:26:54Z,42.805,6.029,13.3046,4.60126,2470.661,2023-8-17T04:29:14Z
2023-08-17T02:29:57Z,42.805,6.029,13.3051,4.60113,2470.646,2023-8-17T04:32:17Z
2023-08-17T02:33:01Z,42.805,6.029,13.3058,4.60116,2470.661,2023-8-17T04:35:20Z
2023-08-17T02:36:04Z,42.805,6.029,13.3047,4.60111,2470.637,2023-8-17T04:38:23Z
2023-08-17T02:39:07Z,42.805,6.029,13.3047,4.60137,2470.624,2023-8-17T04:41:26Z
2023-08-17T02:42:10Z,42.805,6.029,13.3046,4.60131,2470.614,2023-8-17T04:44:29Z
2023-08-17T02:45:13Z,42.805,6.029,13.3050,4.60144,2470.661,2023-8-17T04:47:32Z
2023-08-17T02:48:16Z,42.805,6.029,13.3048,4.60140,2470.624,2023-8-17T04:50:35Z
2023-08-17T02:51:19Z,42.805,6.029,13.3055,4.60138,2470.661,2023-8-17T04:53:38Z
2023-08-17T02:54:22Z,42.805,6.029,13.3054,4.60112,2470.637,2023-8-17T04:56:42Z
2023-08-17T02:57:25Z,42.805,6.029,13.3049,4.60114,2470.624,2023-8-17T04:59:45Z
2023-08-17T03:00:28Z,42.805,6.029,13.3054,4.60126,2470.646,2023-8-17T05:02:48Z
2023-08-17T03:03:31Z,42.805,6.029,13.3060,4.60135,2470.624,2023-8-17T05:05:51Z
2023-08-17T03:06:34Z,42.805,6.029,13.3054,4.60151,2470.661,2023-8-17T05:08:54Z
2023-08-17T03:09:37Z,42.805,6.029,13.3048,4.60144,2470.624,2023-8-17T05:11:57Z
2023-08-17T03:12:41Z,42.805,6.029,13.3045,4.60165,2470.646,2023-8-17T05:15:00Z
2023-08-17T03:15:44Z,42.805,6.029,13.3054,4.60135,2470.637,2023-8-17T05:18:03Z
2023-08-17T03:18:47Z,42.805,6.029,13.3054,4.60147,2470.646,2023-8-17T05:21:06Z
2023-08-17T03:21:50Z,42.805,6.029,13.3039,4.60120,2470.637,2023-8-17T05:24:09Z
2023-08-17T03:24:53Z,42.805,6.029,13.3036,4.60127,2470.637,2023-8-17T05:27:12Z
2023-08-17T03:27:56Z,42.805,6.029,13.3042,4.60132,2470.624,2023-8-17T05:30:15Z
2023-08-17T03:30:59Z,42.805,6.029,13.3045,4.60135,2470.646,2023-8-17T05:33:18Z
2023-08-17T03:34:02Z,42.805,6.029,13.3046,4.60160,2470.661,2023-8-17T05:36:22Z
2023-08-17T03:37:05Z,42.805,6.029,13.3040,4.60133,2470.637,2023-8-17T05:39:25Z
2023-08-17T03:40:08Z,42.805,6.029,13.3043,4.60144,2470.624,2023-8-17T05:42:28Z
2023-08-17T03:43:11Z,42.805,6.029,13.3048,4.60141,2470.661,2023-8-17T05:45:31Z
2023-08-17T03:46:14Z,42.805,6.029,13.3044,4.60128,2470.637,2023-8-17T05:48:34Z
2023-08-17T03:49:18Z,42.805,6.029,13.3034,4.60125,2470.646,2023-8-17T05:51:37Z
2023-08-17T03:52:21Z,42.805,6.029,13.3043,4.60146,2470.646,2023-8-17T05:54:40Z
2023-08-17T03:55:24Z,42.805,6.029,13.3041,4.60127,2470.637,2023-8-17T05:57:43Z
2023-08-17T03:58:27Z,42.805,6.029,13.3044,4.60144,2470.684,2023-8-17T06:00:46Z
2023-08-17T04:01:30Z,42.805,6.029,13.3047,4.60140,2470.661,2023-8-17T06:03:49Z
2023-08-17T04:04:33Z,42.805,6.029,13.3036,4.60146,2470.67,2023-8-17T06:06:52Z
2023-08-17T04:07:36Z,42.805,6.029,13.3048,4.60135,2470.646,2023-8-17T06:09:55Z
2023-08-17T04:10:39Z,42.805,6.029,13.3050,4.60144,2470.646,2023-8-17T06:12:59Z
2023-08-17T04:13:42Z,42.805,6.029,13.3061,4.60165,2470.637,2023-8-17T06:16:02Z
2023-08-17T04:16:45Z,42.805,6.029,13.3045,4.60140,2470.67,2023-8-17T06:19:05Z
2023-08-17T04:19:48Z,42.805,6.029,13.3051,4.60149,2470.661,2023-8-17T06:22:08Z
2023-08-17T04:22:51Z,42.805,6.029,13.3044,4.60127,2470.646,2023-8-17T06:25:11Z
2023-08-17T04:25:55Z,42.805,6.029,13.3049,4.60140,2470.637,2023-8-17T06:28:14Z
2023-08-17T04:28:58Z,42.805,6.029,13.3046,4.60134,2470.684,2023-8-17T06:31:17Z
2023-08-17T04:32:01Z,42.805,6.029,13.3050,4.60149,2470.693,2023-8-17T06:34:20Z
2023-08-17T04:35:04Z,42.805,6.029,13.3037,4.60156,2470.707,2023-8-17T06:37:23Z
2023-08-17T04:38:07Z,42.805,6.029,13.3044,4.60139,2470.707,2023-8-17T06:40:26Z
2023-08-17T04:41:10Z,42.805,6.029,13.3065,4.60173,2470.707,2023-8-17T06:43:29Z
2023-08-17T04:44:13Z,42.805,6.029,13.3048,4.60135,2470.707,2023-8-17T06:46:32Z
2023-08-17T04:47:16Z,42.805,6.029,13.3041,4.60136,2470.684,2023-8-17T06:49:36Z
2023-08-17T04:50:19Z,42.805,6.029,13.3041,4.60137,2470.693,2023-8-17T06:52:39Z
2023-08-17T04:53:22Z,42.805,6.029,13.3051,4.60144,2470.693,2023-8-17T06:55:42Z
2023-08-17T04:56:25Z,42.805,6.029,13.3040,4.60133,2470.693,2023-8-17T06:58:45Z
2023-08-17T04:59:28Z,42.805,6.029,13.3047,4.60135,2470.693,2023-8-17T07:01:48Z
2023-08-17T05:02:32Z,42.805,6.029,13.3042,4.60128,2470.707,2023-8-17T07:04:51Z
2023-08-17T05:05:35Z,42.805,6.029,13.3050,4.60138,2470.693,2023-8-17T07:07:54Z
2023-08-17T05:08:38Z,42.805,6.029,13.3044,4.60137,2470.717,2023-8-17T07:10:57Z
2023-08-17T05:11:41Z,42.805,6.029,13.3048,4.60132,2470.707,2023-8-17T07:14:00Z
2023-08-17T05:14:44Z,42.805,6.029,13.3049,4.60156,2470.693,2023-8-17T07:17:03Z
2023-08-17T05:17:47Z,42.805,6.029,13.3048,4.60150,2470.693,2023-8-17T07:20:06Z
2023-08-17T05:20:50Z,42.805,6.029,13.3055,4.60142,2470.693,2023-8-17T07:23:09Z
2023-08-17T05:23:53Z,42.805,6.029,13.3048,4.60133,2470.73,2023-8-17T07:26:13Z
2023-08-17T05:26:56Z,42.805,6.029,13.3053,4.60153,2470.717,2023-8-17T07:29:16Z
2023-08-17T05:29:59Z,42.805,6.029,13.3051,4.60139,2470.717,2023-8-17T07:32:19Z
2023-08-17T05:33:02Z,42.805,6.029,13.3039,4.60135,2470.74,2023-8-17T07:35:22Z
2023-08-17T05:36:05Z,42.805,6.029,13.3053,4.60152,2470.754,2023-8-17T07:38:25Z
2023-08-17T05:39:08Z,42.805,6.029,13.3045,4.60157,2470.703,2023-8-17T07:41:28Z
2023-08-17T05:42:12Z,42.805,6.029,13.3046,4.60152,2470.693,2023-8-17T07:44:31Z
2023-08-17T05:45:15Z,42.805,6.029,13.3054,4.60152,2470.73,2023-8-17T07:47:34Z
2023-08-17T05:48:18Z,42.805,6.029,13.3052,4.60147,2470.74,2023-8-17T07:50:37Z
2023-08-17T05:51:21Z,42.805,6.029,13.3041,4.60152,2470.717,2023-8-17T07:53:40Z
2023-08-17T05:54:24Z,42.805,6.029,13.3041,4.60147,2470.73,2023-8-17T07:56:43Z
2023-08-17T05:57:27Z,42.805,6.029,13.3041,4.60156,2470.74,2023-8-17T07:59:46Z
2023-08-17T06:00:30Z,42.805,6.029,13.3041,4.60130,2470.74,2023-8-17T08:02:50Z
2023-08-17T06:03:33Z,42.805,6.029,13.3047,4.60150,2470.707,2023-8-17T08:05:53Z
2023-08-17T06:06:36Z,42.805,6.029,13.3049,4.60140,2470.74,2023-8-17T08:08:56Z
2023-08-17T06:09:39Z,42.805,6.029,13.3047,4.60145,2470.73,2023-8-17T08:11:59Z
2023-08-17T06:12:42Z,42.805,6.029,13.3054,4.60165,2470.74,2023-8-17T08:15:02Z
2023-08-17T06:15:45Z,42.805,6.029,13.3054,4.60174,2470.763,2023-8-17T08:18:05Z
2023-08-17T06:18:49Z,42.805,6.029,13.3048,4.60165,2470.73,2023-8-17T08:21:08Z
2023-08-17T06:21:52Z,42.805,6.029,13.3042,4.60188,2470.777,2023-8-17T08:24:11Z
2023-08-17T06:24:55Z,42.805,6.029,13.3055,4.60192,2470.754,2023-8-17T08:27:14Z
2023-08-17T06:27:58Z,42.805,6.029,13.3060,4.60184,2470.777,2023-8-17T08:30:17Z
2023-08-17T06:31:00Z,42.805,6.029,13.3045,4.60151,2470.763,2023-8-17T08:33:19Z
2023-08-17T06:34:03Z,42.805,6.029,13.3047,4.60167,2470.74,2023-8-17T08:36:22Z
2023-08-17T06:37:06Z,42.805,6.029,13.3046,4.60160,2470.777,2023-8-17T08:39:26Z
2023-08-17T06:40:09Z,42.805,6.029,13.3039,4.60144,2470.74,2023-8-17T08:42:29Z
2023-08-17T06:43:12Z,42.805,6.029,13.3044,4.60144,2470.777,2023-8-17T08:45:32Z
2023-08-17T06:46:15Z,42.805,6.029,13.3044,4.60142,2470.777,2023-8-17T08:48:35Z
2023-08-17T06:49:18Z,42.805,6.029,13.3052,4.60141,2470.763,2023-8-17T08:51:38Z
2023-08-17T06:52:21Z,42.805,6.029,13.3039,4.60158,2470.763,2023-8-17T08:54:41Z
2023-08-17T06:55:25Z,42.805,6.029,13.3041,4.60114,2470.763,2023-8-17T08:57:44Z
2023-08-17T06:58:28Z,42.805,6.029,13.3042,4.60140,2470.726,2023-8-17T09:00:47Z
2023-08-17T07:01:31Z,42.805,6.029,13.3036,4.60154,2470.777,2023-8-17T09:03:50Z
2023-08-17T07:04:34Z,42.805,6.029,13.3062,4.60164,2470.74,2023-8-17T09:06:53Z
2023-08-17T07:07:37Z,42.805,6.029,13.3060,4.60167,2470.787,2023-8-17T09:09:56Z
2023-08-17T07:10:40Z,42.805,6.029,13.3063,4.60152,2470.74,2023-8-17T09:12:59Z
2023-08-17T07:13:43Z,42.805,6.029,13.3039,4.60166,2470.787,2023-8-17T09:16:02Z
2023-08-17T07:16:46Z,42.805,6.029,13.3056,4.60163,2470.787,2023-8-17T09:19:06Z
2023-08-17T07:19:49Z,42.805,6.029,13.3058,4.60150,2470.777,2023-8-17T09:22:09Z
2023-08-17T07:22:52Z,42.805,6.029,13.3076,4.60179,2470.74,2023-8-17T09:25:12Z
2023-08-17T07:25:55Z,42.805,6.029,13.3043,4.60145,2470.763,2023-8-17T09:28:15Z
2023-08-17T07:28:58Z,42.805,6.029,13.3043,4.60210,2470.74,2023-8-17T09:31:18Z
2023-08-17T07:32:01Z,42.805,6.029,13.3054,4.60171,2470.754,2023-8-17T09:34:21Z
2023-08-17T07:35:05Z,42.805,6.029,13.3054,4.60181,2470.777,2023-8-17T09:37:24Z
2023-08-17T07:38:08Z,42.805,6.029,13.3061,4.60145,2470.763,2023-8-17T09:40:27Z
2023-08-17T07:41:11Z,42.805,6.029,13.3066,4.60129,2470.74,2023-8-17T09:43:30Z
2023-08-17T07:44:14Z,42.805,6.029,13.3070,4.60161,2470.754,2023-8-17T09:46:33Z
2023-08-17T07:47:17Z,42.805,6.029,13.3069,4.60147,2470.763,2023-8-17T09:49:36Z
2023-08-17T07:50:20Z,42.805,6.029,13.3053,4.60178,2470.763,2023-8-17T09:52:39Z
2023-08-17T07:53:23Z,42.805,6.029,13.3051,4.60145,2470.754,2023-8-17T09:55:43Z
2023-08-17T07:56:26Z,42.805,6.029,13.3054,4.60155,2470.74,2023-8-17T09:58:46Z
2023-08-17T07:59:29Z,42.805,6.029,13.3067,4.60164,2470.74,2023-8-17T10:01:49Z
2023-08-17T08:02:32Z,42.805,6.029,13.3080,4.60136,2470.74,2023-8-17T10:04:52Z
2023-08-17T08:05:35Z,42.805,6.029,13.3085,4.60143,2470.74,2023-8-17T10:07:55Z
2023-08-17T08:08:38Z,42.805,6.029,13.3089,4.60129,2470.763,2023-8-17T10:10:58Z
2023-08-17T08:11:42Z,42.805,6.029,13.3125,4.60141,2470.763,2023-8-17T10:14:01Z
2023-08-17T08:14:45Z,42.805,6.029,13.3119,4.60127,2470.754,2023-8-17T10:17:04Z
2023-08-17T08:17:48Z,42.805,6.029,13.3096,4.60114,2470.73,2023-8-17T10:20:07Z
2023-08-17T08:20:51Z,42.805,6.029,13.3076,4.60145,2470.777,2023-8-17T10:23:10Z
2023-08-17T08:23:54Z,42.805,6.029,13.3078,4.60126,2470.763,2023-8-17T10:26:13Z
2023-08-17T08:26:57Z,42.805,6.029,13.3075,4.60141,2470.763,2023-8-17T10:29:16Z
2023-08-17T08:30:00Z,42.805,6.029,13.3070,4.60172,2470.74,2023-8-17T10:32:20Z
2023-08-17T08:33:03Z,42.805,6.029,13.3079,4.60150,2470.754,2023-8-17T10:35:22Z
2023-08-17T08:36:06Z,42.805,6.029,13.3055,4.60137,2470.74,2023-8-17T10:38:25Z
2023-08-17T08:39:09Z,42.805,6.029,13.3046,4.60152,2470.754,2023-8-17T10:41:28Z
2023-08-17T08:42:12Z,42.805,6.029,13.3049,4.60152,2470.74,2023-8-17T10:44:32Z
2023-08-17T08:45:15Z,42.805,6.029,13.3048,4.60151,2470.74,2023-8-17T10:47:35Z
2023-08-17T08:48:18Z,42.805,6.029,13.3058,4.60178,2470.693,2023-8-17T10:50:38Z
2023-08-17T08:51:21Z,42.805,6.029,13.3068,4.60143,2470.74,2023-8-17T10:53:41Z
2023-08-17T08:54:24Z,42.805,6.029,13.3056,4.60165,2470.777,2023-8-17T10:56:44Z
2023-08-17T08:57:27Z,42.805,6.029,13.3059,4.60185,2470.74,2023-8-17T10:59:47Z
2023-08-17T09:00:31Z,42.805,6.029,13.3073,4.60155,2470.777,2023-8-17T11:02:50Z
2023-08-17T09:03:34Z,42.805,6.029,13.3070,4.60155,2470.777,2023-8-17T11:05:53Z
2023-08-17T09:06:37Z,42.805,6.029,13.3052,4.60182,2470.75,2023-8-17T11:08:56Z
2023-08-17T09:09:40Z,42.805,6.029,13.3069,4.60134,2470.73,2023-8-17T11:11:59Z
2023-08-17T09:12:43Z,42.805,6.029,13.3086,4.60162,2470.754,2023-8-17T11:15:02Z
2023-08-17T09:15:46Z,42.805,6.029,13.3071,4.60195,2470.717,2023-8-17T11:18:05Z
2023-08-17T09:18:49Z,42.805,6.029,13.3096,4.60155,2470.74,2023-8-17T11:21:09Z
2023-08-17T09:21:52Z,42.805,6.029,13.3099,4.60165,2470.754,2023-8-17T11:24:12Z
2023-08-17T09:24:55Z,42.805,6.029,13.3118,4.60168,2470.73,2023-8-17T11:27:15Z
2023-08-17T09:27:58Z,42.805,6.029,13.3084,4.60152,2470.717,2023-8-17T11:30:18Z
2023-08-17T09:31:01Z,42.805,6.029,13.3077,4.60150,2470.73,2023-8-17T11:33:21Z
2023-08-17T09:34:04Z,42.805,6.029,13.3111,4.60146,2470.73,2023-8-17T11:36:24Z
2023-08-17T09:37:08Z,42.805,6.029,13.3066,4.60140,2470.693,2023-8-17T11:39:27Z
2023-08-17T09:40:11Z,42.805,6.029,13.3094,4.60145,2470.717,2023-8-17T11:42:30Z
2023-08-17T09:43:14Z,42.805,6.029,13.3098,4.60157,2470.717,2023-8-17T11:45:33Z
2023-08-17T09:46:17Z,42.805,6.029,13.3037,4.60135,2470.693,2023-8-17T11:48:36Z
2023-08-17T09:49:20Z,42.805,6.029,13.3030,4.60110,2470.73,2023-8-17T11:51:39Z
2023-08-17T09:52:23Z,42.805,6.029,13.3031,4.60094,2470.717,2023-8-17T11:54:42Z
2023-08-17T09:55:26Z,42.805,6.029,13.3030,4.60092,2470.717,2023-8-17T11:57:46Z
2023-08-17T09:58:29Z,42.805,6.029,13.3029,4.60092,2470.73,2023-8-17T12:00:49Z
2023-08-17T10:01:32Z,42.805,6.029,13.3028,4.60093,2470.693,2023-8-17T12:03:52Z
2023-08-17T10:04:35Z,42.805,6.029,13.3026,4.60091,2470.67,2023-8-17T12:06:55Z
2023-08-17T10:07:38Z,42.805,6.029,13.3030,4.60090,2470.707,2023-8-17T12:09:58Z
2023-08-17T10:10:41Z,42.805,6.029,13.3025,4.60091,2470.67,2023-8-17T12:13:01Z
2023-08-17T10:13:45Z,42.805,6.029,13.3028,4.60089,2470.693,2023-8-17T12:16:04Z
2023-08-17T10:16:48Z,42.805,6.029,13.3027,4.60089,2470.67,2023-8-17T12:19:07Z
2023-08-17T10:19:51Z,42.805,6.029,13.3028,4.60090,2470.684,2023-8-17T12:22:10Z
2023-08-17T10:22:54Z,42.805,6.029,13.3030,4.60093,2470.693,2023-8-17T12:25:13Z
2023-08-17T10:25:57Z,42.805,6.029,13.3028,4.60091,2470.707,2023-8-17T12:28:16Z
2023-08-17T10:29:00Z,42.805,6.029,13.3029,4.60093,2470.67,2023-8-17T12:31:19Z
2023-08-17T10:32:01Z,42.805,6.029,13.3027,4.60090,2470.646,2023-8-17T12:34:21Z
2023-08-17T10:35:04Z,42.805,6.029,13.3027,4.60089,2470.693,2023-8-17T12:37:24Z
2023-08-17T10:38:08Z,42.805,6.029,13.3029,4.60090,2470.693,2023-8-17T12:40:27Z
2023-08-17T10:41:11Z,42.805,6.029,13.3024,4.60094,2470.67,2023-8-17T12:43:30Z
2023-08-17T10:44:14Z,42.805,6.029,13.3027,4.60091,2470.693,2023-8-17T12:46:33Z
2023-08-17T10:47:17Z,42.805,6.029,13.3030,4.60091,2470.73,2023-8-17T12:49:36Z
2023-08-17T10:50:20Z,42.805,6.029,13.3029,4.60092,2470.707,2023-8-17T12:52:39Z
2023-08-17T10:53:23Z,42.805,6.029,13.3033,4.60091,2470.693,2023-8-17T12:55:42Z
2023-08-17T10:56:26Z,42.805,6.029,13.3033,4.60090,2470.661,2023-8-17T12:58:46Z
2023-08-17T10:59:29Z,42.805,6.029,13.3026,4.60090,2470.67,2023-8-17T13:01:49Z
2023-08-17T11:02:32Z,42.805,6.029,13.3029,4.60091,2470.646,2023-8-17T13:04:52Z
2023-08-17T11:05:35Z,42.805,6.029,13.3027,4.60093,2470.707,2023-8-17T13:07:55Z
2023-08-17T11:08:38Z,42.805,6.029,13.3027,4.60090,2470.707,2023-8-17T13:10:58Z
2023-08-17T11:11:42Z,42.805,6.029,13.3033,4.60093,2470.693,2023-8-17T13:14:01Z
2023-08-17T11:14:45Z,42.805,6.029,13.3027,4.60092,2470.693,2023-8-17T13:17:04Z
2023-08-17T11:17:48Z,42.805,6.029,13.3026,4.60091,2470.646,2023-8-17T13:20:07Z
2023-08-17T11:20:51Z,42.805,6.029,13.3029,4.60092,2470.633,2023-8-17T13:23:10Z
2023-08-17T11:23:54Z,42.805,6.029,13.3029,4.60094,2470.646,2023-8-17T13:26:13Z
2023-08-17T11:26:57Z,42.805,6.029,13.3029,4.60093,2470.646,2023-8-17T13:29:16Z
2023-08-17T11:30:00Z,42.805,6.029,13.3029,4.60093,2470.624,2023-8-17T13:32:20Z
2023-08-17T11:33:03Z,42.805,6.029,13.3028,4.60091,2470.646,2023-8-17T13:35:23Z
2023-08-17T11:36:06Z,42.805,6.029,13.3028,4.60091,2470.624,2023-8-17T13:38:26Z
2023-08-17T11:39:09Z,42.805,6.029,13.3025,4.60092,2470.684,2023-8-17T13:41:29Z
2023-08-17T11:42:12Z,42.805,6.029,13.3028,4.60092,2470.637,2023-8-17T13:44:32Z
2023-08-17T11:45:15Z,42.805,6.029,13.3028,4.60097,2470.624,2023-8-17T13:47:35Z
2023-08-17T11:48:19Z,42.805,6.029,13.3026,4.60089,2470.661,2023-8-17T13:50:38Z
2023-08-17T11:51:22Z,42.805,6.029,13.3029,4.60091,2470.6,2023-8-17T13:53:41Z
2023-08-17T11:54:25Z,42.805,6.029,13.3028,4.60089,2470.624,2023-8-17T13:56:44Z
2023-08-17T11:57:28Z,42.805,6.029,13.3031,4.60089,2470.624,2023-8-17T13:59:47Z
2023-08-17T12:00:31Z,42.805,6.029,13.3029,4.60092,2470.637,2023-8-17T14:02:50Z
2023-08-17T12:03:34Z,42.805,6.029,13.3025,4.60092,2470.624,2023-8-17T14:05:53Z
2023-08-17T12:06:37Z,42.805,6.029,13.3027,4.60090,2470.646,2023-8-17T14:08:57Z
2023-08-17T12:09:40Z,42.805,6.029,13.3029,4.60093,2470.624,2023-8-17T14:12:00Z
2023-08-17T12:12:43Z,42.805,6.029,13.3029,4.60089,2470.624,2023-8-17T14:15:03Z
2023-08-17T12:15:46Z,42.805,6.029,13.3026,4.60090,2470.624,2023-8-17T14:18:06Z
2023-08-17T12:18:49Z,42.805,6.029,13.3026,4.60091,2470.614,2023-8-17T14:21:09Z
2023-08-17T12:21:52Z,42.805,6.029,13.3029,4.60092,2470.614,2023-8-17T14:24:12Z
2023-08-17T12:24:56Z,42.805,6.029,13.3030,4.60092,2470.624,2023-8-17T14:27:15Z
2023-08-17T12:27:59Z,42.805,6.029,13.3027,4.60092,2470.614,2023-8-17T14:30:18Z
2023-08-17T12:31:02Z,42.805,6.029,13.3032,4.60094,2470.614,2023-8-17T14:33:21Z
2023-08-17T12:34:05Z,42.805,6.029,13.3029,4.60094,2470.624,2023-8-17T14:36:24Z
2023-08-17T12:37:08Z,42.805,6.029,13.3029,4.60091,2470.624,2023-8-17T14:39:27Z
2023-08-17T12:40:11Z,42.805,6.029,13.3030,4.60094,2470.637,2023-8-17T14:42:30Z
2023-08-17T12:43:14Z,42.805,6.029,13.3028,4.60092,2470.637,2023-8-17T14:45:34Z
2023-08-17T12:46:17Z,42.805,6.029,13.3029,4.60091,2470.6,2023-8-17T14:48:37Z
2023-08-17T12:49:20Z,42.805,6.029,13.3028,4.60092,2470.591,2023-8-17T14:51:40Z
2023-08-17T12:52:23Z,42.805,6.029,13.3029,4.60096,2470.67,2023-8-17T14:54:43Z
2023-08-17T12:55:26Z,42.805,6.029,13.3029,4.60090,2470.646,2023-8-17T14:57:46Z
2023-08-17T12:58:30Z,42.805,6.029,13.3029,4.60090,2470.577,2023-8-17T15:00:49Z
2023-08-17T13:01:33Z,42.805,6.029,13.3030,4.60091,2470.614,2023-8-17T15:03:52Z
2023-08-17T13:04:36Z,42.805,6.029,13.3031,4.60093,2470.6,2023-8-17T15:06:55Z
2023-08-17T13:07:39Z,42.805,6.029,13.3026,4.60091,2470.614,2023-8-17T15:09:58Z
2023-08-17T13:10:42Z,42.805,6.029,13.3031,4.60091,2470.637,2023-8-17T15:13:01Z
2023-08-17T13:13:45Z,42.805,6.029,13.3029,4.60092,2470.614,2023-8-17T15:16:04Z
2023-08-17T13:16:48Z,42.805,6.029,13.3031,4.60095,2470.6,2023-8-17T15:19:08Z
2023-08-17T13:19:51Z,42.805,6.029,13.3026,4.60089,2470.624,2023-8-17T15:22:11Z
2023-08-17T13:22:54Z,42.805,6.029,13.3031,4.60091,2470.6,2023-8-17T15:25:14Z
2023-08-17T13:25:57Z,42.805,6.029,13.3030,4.60094,2470.637,2023-8-17T15:28:17Z
2023-08-17T13:29:00Z,42.805,6.029,13.3029,4.60089,2470.577,2023-8-17T15:31:20Z
2023-08-17T13:32:03Z,42.805,6.029,13.3029,4.60090,2470.591,2023-8-17T15:34:23Z
2023-08-17T13:35:07Z,42.805,6.029,13.3026,4.60090,2470.6,2023-8-17T15:37:26Z
2023-08-17T13:38:10Z,42.805,6.029,13.3028,4.60089,2470.6,2023-8-17T15:40:29Z
2023-08-17T13:41:13Z,42.805,6.029,13.3031,4.60092,2470.591,2023-8-17T15:43:32Z
2023-08-17T13:44:16Z,42.805,6.029,13.3026,4.60090,2470.577,2023-8-17T15:46:35Z
2023-08-17T13:47:19Z,42.805,6.029,13.3030,4.60091,2470.624,2023-8-17T15:49:38Z
2023-08-17T13:50:22Z,42.805,6.029,13.3031,4.60096,2470.614,2023-8-17T15:52:41Z
2023-08-17T13:53:25Z,42.805,6.029,13.3026,4.60091,2470.646,2023-8-17T15:55:45Z
2023-08-17T13:56:28Z,42.805,6.029,13.3029,4.60091,2470.577,2023-8-17T15:58:48Z
2023-08-17T13:59:31Z,42.805,6.029,13.3029,4.60089,2470.6,2023-8-17T16:01:51Z
2023-08-17T14:02:34Z,42.805,6.029,13.3032,4.60092,2470.624,2023-8-17T16:04:54Z
2023-08-17T14:05:37Z,42.805,6.029,13.3028,4.60094,2470.6,2023-8-17T16:07:57Z
2023-08-17T14:08:40Z,42.805,6.029,13.3032,4.60093,2470.6,2023-8-17T16:11:00Z
2023-08-17T14:11:44Z,42.805,6.029,13.3034,4.60092,2470.614,2023-8-17T16:14:03Z
2023-08-17T14:14:47Z,42.805,6.029,13.3038,4.60098,2470.614,2023-8-17T16:17:06Z
2023-08-17T14:17:50Z,42.805,6.029,13.3049,4.60117,2470.577,2023-8-17T16:20:09Z
2023-08-17T14:20:53Z,42.805,6.029,13.3043,4.60104,2470.577,2023-8-17T16:23:12Z
2023-08-17T14:23:56Z,42.805,6.029,13.3029,4.60102,2470.6,2023-8-17T16:26:15Z
2023-08-17T14:26:59Z,42.805,6.029,13.3029,4.60093,2470.6,2023-8-17T16:29:18Z
2023-08-17T14:30:02Z,42.805,6.029,13.3028,4.60093,2470.577,2023-8-17T16:32:22Z
2023-08-17T14:33:04Z,42.805,6.029,13.3026,4.60091,2470.6,2023-8-17T16:35:24Z
2023-08-17T14:36:07Z,42.805,6.029,13.3031,4.60091,2470.6,2023-8-17T16:38:27Z
2023-08-17T14:39:10Z,42.805,6.029,13.3029,4.60096,2470.6,2023-8-17T16:41:30Z
2023-08-17T14:42:13Z,42.805,6.029,13.3028,4.60094,2470.591,2023-8-17T16:44:33Z
2023-08-17T14:45:16Z,42.805,6.029,13.3034,4.60092,2470.6,2023-8-17T16:47:36Z
2023-08-17T14:48:20Z,42.805,6.029,13.3027,4.60096,2470.624,2023-8-17T16:50:39Z
2023-08-17T14:51:23Z,42.805,6.029,13.3029,4.60093,2470.624,2023-8-17T16:53:42Z
2023-08-17T14:54:26Z,42.805,6.029,13.3028,4.60091,2470.6,2023-8-17T16:56:45Z
2023-08-17T14:57:29Z,42.805,6.029,13.3028,4.60102,2470.591,2023-8-17T16:59:48Z
2023-08-17T15:00:32Z,42.805,6.029,13.3030,4.60090,2470.6,2023-8-17T17:02:51Z
2023-08-17T15:03:35Z,42.805,6.029,13.3035,4.60090,2470.6,2023-8-17T17:05:54Z
2023-08-17T15:06:38Z,42.805,6.029,13.3031,4.60094,2470.624,2023-8-17T17:08:58Z
2023-08-17T15:09:41Z,42.805,6.029,13.3030,4.60094,2470.577,2023-8-17T17:12:01Z
2023-08-17T15:12:44Z,42.805,6.029,13.3024,4.60089,2470.577,2023-8-17T17:15:04Z